Weather History for Mammoth, CA

Change the Weather History Date:

Tuesday, June 18, 2013

  Actual Average Record
Temperature  
Mean Temperature 55 °F -  
Max Temperature 73 °F 72 °F 80 °F (2001)
Min Temperature 37 °F 60 °F 32 °F (2014)
Degree Days  
Heating Degree Days 10    
Growing Degree Days 5 (Base 50)    
Moisture  
Dew Point 20 °F    
Average Humidity 24    
Maximum Humidity 49    
Minimum Humidity 9    
Precipitation  
Precipitation 0.00 in - - ()
Sea Level Pressure  
Sea Level Pressure 30.06 in    
Wind  
Wind Speed 10 mph (SSW)    
Max Wind Speed 28 mph    
Max Gust Speed 46 mph    
Visibility 10 miles    
Events      
Averages and records for this station are not official NWS values.
T = Trace of Precipitation, MM = Missing Value Source: NWS Daily Summary

Daily Weather History Graph

Daily Weather History Graph

Search for Another Location

Airport:

Trip Planner

Search our weather history database for the weather conditions in past years. The results will help you decide how hot, cold, wet, or windy it might be!

Date:

Astronomy

Jun. 18, 2013 Rise Set
Actual Time 5:33 AM PDT 8:19 PM PDT
Civil Twilight 5:02 AM PDT 8:50 PM PDT
Nautical Twilight 4:23 AM PDT 9:29 PM PDT
Astronomical Twilight 3:39 AM PDT 10:14 PM PDT
Moon 3:13 PM PDT (6/18) 1:39 AM PDT (6/18)
Length of Visible Light 15h 48m
Length of Day
14h 45m
Waxing Gibbous, 72% of the Moon is Illuminated
Jun 18
Waxing Gibbous
Jun 23
Full
Jun 29
Last Quarter
Jul 8
New
Jul 15
First Quarter

Hourly Weather History & Observations

Time (PDT) Temp. Windchill Dew Point Humidity Pressure Visibility Wind Dir Wind Speed Gust Speed Precip Events Conditions
12:15 AM 55.4 °F - 19.4 °F 25% 30.16 in 10.0 mi SSW 5.8 mph - N/A   Clear
12:35 AM 59.0 °F - 12.2 °F 16% 30.16 in 10.0 mi SW 9.2 mph - N/A   Clear
12:55 AM 57.2 °F - 19.4 °F 23% 30.16 in 10.0 mi Calm Calm - N/A   Clear
1:15 AM 51.8 °F - 28.4 °F 41% 30.15 in 10.0 mi ESE 8.1 mph - N/A   Clear
1:35 AM 51.8 °F - 28.4 °F 41% 30.15 in 10.0 mi SSE 4.6 mph - N/A   Clear
1:55 AM 50.0 °F - 24.8 °F 37% 30.15 in 10.0 mi ENE 4.6 mph - N/A   Clear
2:15 AM 50.0 °F - 23.0 °F 35% 30.15 in 10.0 mi East 5.8 mph - N/A   Clear
2:35 AM 50.0 °F - 21.2 °F 32% 30.15 in 10.0 mi ESE 4.6 mph - N/A   Clear
2:55 AM 46.4 °F - 21.2 °F 37% 30.15 in 10.0 mi Calm Calm - N/A   Clear
3:15 AM 46.4 °F 45.2 °F 19.4 °F 34% 30.14 in 10.0 mi East 3.5 mph - N/A   Clear
3:35 AM 44.6 °F 40.7 °F 21.2 °F 39% 30.14 in 10.0 mi ESE 6.9 mph - N/A   Clear
3:55 AM 48.2 °F - 21.2 °F 34% 30.14 in 10.0 mi ESE 4.6 mph - N/A   Clear
4:15 AM 46.4 °F - 23.0 °F 40% 30.14 in 10.0 mi Calm Calm - N/A   Clear
4:35 AM 44.6 °F 41.4 °F 23.0 °F 43% 30.14 in 10.0 mi SW 5.8 mph - N/A   Clear
4:55 AM 41.0 °F 36.4 °F 21.2 °F 45% 30.13 in 10.0 mi WNW 6.9 mph - N/A   Clear
5:15 AM 39.2 °F - 21.2 °F 49% 30.13 in 10.0 mi Calm Calm - N/A   Clear
5:35 AM 37.4 °F 34.9 °F 19.4 °F 48% 30.13 in 10.0 mi North 3.5 mph - N/A   Clear
5:55 AM 39.2 °F - 19.4 °F 45% 30.14 in 10.0 mi Calm Calm - N/A   Clear
6:15 AM 42.8 °F - 19.4 °F 39% 30.13 in 10.0 mi Calm Calm - N/A   Clear
6:35 AM 44.6 °F - 21.2 °F 39% 30.14 in 10.0 mi Calm Calm - N/A   Clear
6:55 AM 48.2 °F - 21.2 °F 34% 30.14 in 10.0 mi South 5.8 mph - N/A   Clear
7:15 AM 51.8 °F - 23.0 °F 33% 30.13 in 10.0 mi Calm Calm - N/A   Clear
7:35 AM 55.4 °F - 24.8 °F 31% 30.13 in 10.0 mi SE 4.6 mph - N/A   Clear
7:55 AM 55.4 °F - 30.2 °F 38% 30.13 in 10.0 mi SE 9.2 mph - N/A   Clear
8:15 AM 57.2 °F - 28.4 °F 33% 30.12 in 10.0 mi SE 5.8 mph - N/A   Clear
8:35 AM 62.6 °F - 24.8 °F 24% 30.12 in 10.0 mi ESE 5.8 mph - N/A   Clear
8:55 AM 64.4 °F - 21.2 °F 19% 30.11 in 10.0 mi Calm Calm - N/A   Clear
9:15 AM 68.0 °F - 14.0 °F 12% 30.11 in 10.0 mi WNW 9.2 mph - N/A   Clear
9:35 AM 68.0 °F - 8.6 °F 10% 30.10 in 10.0 mi SW 10.4 mph 19.6 mph N/A   Clear
9:55 AM 69.8 °F - 6.8 °F 9% 30.10 in 10.0 mi SW 16.1 mph 24.2 mph N/A   Clear
10:15 AM 69.8 °F - 8.6 °F 9% 30.09 in 10.0 mi SW 15.0 mph 32.2 mph N/A   Clear
10:35 AM 69.8 °F - 8.6 °F 9% 30.09 in 10.0 mi SW 13.8 mph 26.5 mph N/A   Clear
10:55 AM 69.8 °F - 12.2 °F 11% 30.09 in 10.0 mi SSW 16.1 mph 25.3 mph N/A   Clear
11:15 AM 71.6 °F - 12.2 °F 10% 30.08 in 10.0 mi SSW 24.2 mph 35.7 mph N/A   Clear
11:35 AM 71.6 °F - 14.0 °F 11% 30.08 in 10.0 mi SW 15.0 mph 25.3 mph N/A   Clear
11:55 AM 73.4 °F - 14.0 °F 10% 30.07 in 10.0 mi SSW 24.2 mph 36.8 mph N/A   Clear
12:15 PM 73.4 °F - 14.0 °F 10% 30.07 in 10.0 mi SSW 24.2 mph 36.8 mph N/A   Clear
12:35 PM 73.4 °F - 15.8 °F 11% 30.06 in 10.0 mi SSW 20.7 mph 32.2 mph N/A   Clear
12:55 PM 73.4 °F - 15.8 °F 11% 30.06 in 10.0 mi SSW 10.4 mph 34.5 mph N/A   Clear
1:15 PM 73.4 °F - 17.6 °F 12% 30.05 in 10.0 mi SW 19.6 mph 39.1 mph N/A   Clear
1:35 PM 73.4 °F - 17.6 °F 12% 30.04 in 10.0 mi SW 27.6 mph 44.9 mph N/A   Clear
1:55 PM 73.4 °F - 17.6 °F 12% 30.05 in 10.0 mi SSW 20.7 mph 32.2 mph N/A   Clear
2:15 PM 73.4 °F - 17.6 °F 12% 30.03 in 10.0 mi SSW 23.0 mph 32.2 mph N/A   Clear
2:35 PM 73.4 °F - 17.6 °F 12% 30.03 in 10.0 mi SW 9.2 mph 36.8 mph N/A   Clear
2:55 PM 73.4 °F - 19.4 °F 13% 30.02 in 10.0 mi SSW 19.6 mph 32.2 mph N/A   Clear
3:15 PM 73.4 °F - 21.2 °F 14% 30.02 in 10.0 mi SSW 19.6 mph 39.1 mph N/A   Clear
3:35 PM 71.6 °F - 21.2 °F 15% 30.00 in 10.0 mi South 26.5 mph 42.6 mph N/A   Clear
3:55 PM 71.6 °F - 21.2 °F 15% 30.00 in 10.0 mi SW 16.1 mph 46.0 mph N/A   Clear
4:15 PM 71.6 °F - 21.2 °F 15% 29.99 in 10.0 mi SW 15.0 mph 23.0 mph N/A   Clear
4:35 PM 71.6 °F - 23.0 °F 16% 29.99 in 10.0 mi SW 17.3 mph 27.6 mph N/A   Clear
4:55 PM 71.6 °F - 23.0 °F 16% 29.98 in 10.0 mi SSW 19.6 mph 35.7 mph N/A   Clear
5:15 PM 69.8 °F - 24.8 °F 18% 29.97 in 10.0 mi SSW 16.1 mph 34.5 mph N/A   Clear
5:35 PM 69.8 °F - 24.8 °F 18% 29.97 in 10.0 mi SW 16.1 mph 39.1 mph N/A   Clear
5:55 PM 68.0 °F - 26.6 °F 21% 29.97 in 10.0 mi SSW 17.3 mph 33.4 mph N/A   Clear
6:15 PM 66.2 °F - 26.6 °F 23% 29.96 in 10.0 mi SSW 20.7 mph 39.1 mph N/A   Clear
6:35 PM 66.2 °F - 26.6 °F 23% 29.96 in 10.0 mi SW 16.1 mph 32.2 mph N/A   Clear
6:55 PM 64.4 °F - 26.6 °F 24% 29.96 in 10.0 mi SW 27.6 mph 39.1 mph N/A   Clear
7:15 PM 64.4 °F - 26.6 °F 24% 29.97 in 10.0 mi SSW 19.6 mph 39.1 mph N/A   Clear
7:35 PM 62.6 °F - 26.6 °F 26% 29.97 in 10.0 mi SSW 26.5 mph 39.1 mph N/A   Clear
7:55 PM 60.8 °F - 26.6 °F 27% 29.98 in 10.0 mi WSW 11.5 mph 24.2 mph N/A   Clear
8:15 PM 59.0 °F - 26.6 °F 29% 29.98 in 10.0 mi SW 15.0 mph 35.7 mph N/A   Clear
8:35 PM 59.0 °F - 23.0 °F 25% 29.98 in 10.0 mi SSW 20.7 mph 29.9 mph N/A   Clear
8:55 PM 59.0 °F - 21.2 °F 23% 29.99 in 10.0 mi SW 17.3 mph 26.5 mph N/A   Clear
9:15 PM 57.2 °F - 19.4 °F 23% 29.99 in 10.0 mi SSW 21.9 mph 34.5 mph N/A   Clear
9:35 PM 57.2 °F - 15.8 °F 20% 30.00 in 10.0 mi SSW 13.8 mph 29.9 mph N/A   Clear
9:55 PM 57.2 °F - 15.8 °F 20% 30.00 in 10.0 mi SW 24.2 mph 36.8 mph N/A   Clear
10:15 PM 57.2 °F - 14.0 °F 18% 30.00 in 10.0 mi SSW 20.7 mph 29.9 mph N/A   Clear
10:35 PM 55.4 °F - 12.2 °F 18% 30.00 in 10.0 mi SSW 19.6 mph 28.8 mph N/A   Clear
10:55 PM 55.4 °F - 12.2 °F 18% 30.00 in 10.0 mi SSW 23.0 mph 35.7 mph N/A   Clear
11:15 PM 55.4 °F - 14.0 °F 20% 30.00 in 10.0 mi SSW 21.9 mph 34.5 mph N/A   Clear
11:35 PM 53.6 °F - 12.2 °F 19% 29.99 in 10.0 mi SW 24.2 mph 36.8 mph N/A   Clear
11:55 PM 53.6 °F - 10.4 °F 18% 29.99 in 10.0 mi SW 23.0 mph 38.0 mph N/A   Clear